Location: Aufkirchen
(47.9603°N, 11.3653°E)
Time: 23:51:52
(UTC+01:00)

Altair - Visible Passes

Search period start: 05 December 2020 00:00
Search period end: 15 December 2020 00:00
Orbit: 1502 x 1682 km, 47.2° (Epoch: 04 December)

Date Brightness Start Highest point End Pass type
(mag) Time Alt. Az. Time Alt. Az. Time Alt. Az.
05 Dec 8.9 16:46:05 10° SSE 16:51:47 18° SE 16:57:23 10° E visible
05 Dec 7.7 18:45:47 10° SW 18:54:49 50° SSE 18:57:36 40° ESE visible
05 Dec 8.1 20:49:36 10° WSW 20:55:38 46° WSW 20:55:38 46° WSW visible
06 Dec 7.8 18:20:45 10° SW 18:29:43 48° SE 18:33:55 30° E visible
06 Dec 7.7 20:24:25 10° WSW 20:31:56 61° WSW 20:31:56 61° WSW visible
06 Dec 9.6 22:29:14 10° W 22:29:58 13° W 22:29:58 13° W visible
07 Dec 8.0 17:55:44 10° SSW 18:04:37 45° SE 18:10:11 23° E visible
07 Dec 7.3 19:59:14 10° WSW 20:08:13 78° SSW 20:08:13 78° SSW visible
07 Dec 9.2 22:04:02 10° W 22:06:15 19° W 22:06:15 19° W visible
08 Dec 8.1 17:30:44 10° SSW 17:39:32 42° SE 17:46:27 16° E visible
08 Dec 7.2 19:34:03 10° WSW 19:43:33 78° SSE 19:44:28 72° ESE visible
08 Dec 8.9 21:38:51 10° W 21:42:30 27° W 21:42:30 27° W visible
09 Dec 8.2 17:05:46 10° SSW 17:14:27 40° SE 17:22:41 11° ENE visible
09 Dec 7.4 19:08:52 10° WSW 19:18:23 76° SSE 19:20:43 56° E visible
09 Dec 8.4 21:13:39 10° W 21:18:44 37° W 21:18:44 37° W visible
10 Dec 8.3 16:40:48 10° SSW 16:49:22 37° SE 16:57:40 10° ENE visible
10 Dec 7.4 18:43:43 10° WSW 18:53:14 74° SSE 18:56:56 42° E visible
10 Dec 8.0 20:48:26 10° W 20:54:57 50° W 20:54:57 50° W visible
11 Dec 7.5 18:18:32 10° WSW 18:28:05 72° SSE 18:33:09 31° E visible
11 Dec 7.6 20:23:14 10° W 20:31:10 67° W 20:31:10 67° W visible
11 Dec 9.5 22:28:03 10° WNW 22:29:11 14° WNW 22:29:11 14° WNW visible
12 Dec 7.6 17:53:23 10° WSW 18:02:56 70° SSE 18:09:21 23° E visible
12 Dec 7.3 19:58:01 10° W 20:07:22 86° SW 20:07:22 86° SW visible
12 Dec 9.2 22:02:52 10° WNW 22:05:23 21° W 22:05:23 21° W visible
13 Dec 7.7 17:28:14 10° SW 17:37:47 67° SSE 17:45:33 16° ENE visible
13 Dec 7.2 19:32:48 10° W 19:42:22 87° S 19:43:34 72° E visible
13 Dec 8.8 21:37:40 10° WNW 21:41:35 29° W 21:41:35 29° W visible
14 Dec 7.8 17:03:05 10° SW 17:12:38 64° SSE 17:21:46 10° ENE visible
14 Dec 7.4 19:07:35 10° W 19:17:11 87° S 19:19:47 54° E visible
14 Dec 8.4 21:12:28 10° WNW 21:17:48 38° W 21:17:48 38° W visible
